El Paso, TX

7:11 PM MST on November 24, 2017 (GMT -0700)
El Paso International

Weather History for KELP - December, 2012

Change the Weather History Date:

Monday, December 10, 2012

  Actual Average Record
Temperature  
Mean Temperature 40 °F 45 °F  
Max Temperature 49 °F 58 °F 74 °F (2015)
Min Temperature 30 °F 33 °F 14 °F (1885)
Degree Days  
Heating Degree Days 25 20  
Month to date heating degree days 103 188  
Since 1 July heating degree days 363 630  
Cooling Degree Days 0 0  
Month to date cooling degree days 0 0  
Year to date cooling degree days 2876 2331  
Moisture  
Dew Point 2 °F    
Average Humidity 28    
Maximum Humidity 44    
Minimum Humidity 12    
Precipitation  
Precipitation 0.00 in 0.03 in 1.05 in (1946)
Month to date precipitation 0.00 0.25  
Year to date precipitation 5.95 9.18  
Snow  
Snow 0.00 in - - ()
Month to date snowfall 0.0  
Since 1 July snowfall 0.0  
Snow Depth 0.00 in    
Sea Level Pressure  
Sea Level Pressure 30.06 in    
Wind  
Wind Speed 6 mph (North)    
Max Wind Speed 20 mph    
Max Gust Speed 24 mph    
Visibility 10 miles    
Events      
T = Trace of Precipitation, MM = Missing Value Source: NWS Daily Summary

Daily Weather History Graph

Daily Weather History Graph

Search for Another Location

Airport or City:

Trip Planner

Search our weather history database for the weather conditions in past years. The results will help you decide how hot, cold, wet, or windy it might be!

Date:

Astronomy

Dec. 10, 2012 Rise Set
Actual Time 6:55 AM MST 5:02 PM MST
Civil Twilight 6:28 AM MST 5:28 PM MST
Nautical Twilight 5:57 AM MST 5:59 PM MST
Astronomical Twilight 5:28 AM MST 6:29 PM MST
Moon 3:48 AM MST (12/10) 2:48 PM MST (12/10)
Length of Visible Light 11h 00m
Length of Day
10h 06m
Waning Crescent, 10% of the Moon is Illuminated
Dec 10
Waning Crescent
Dec 13
New
Dec 19
First Quarter
Dec 28
Full
Jan 4
Last Quarter

Hourly Weather History & Observations

Time (MST) Temp. Windchill Dew Point Humidity Pressure Visibility Wind Dir Wind Speed Gust Speed Precip Events Conditions
12:51 AM 36.0 °F 29.0 °F 14.0 °F 41% 30.09 in 10.0 mi North 9.2 mph - N/A   Clear
1:51 AM 36.0 °F 28.0 °F 12.0 °F 37% 30.09 in 10.0 mi North 11.5 mph - N/A   Clear
2:51 AM 34.0 °F 25.5 °F 9.0 °F 35% 30.09 in 10.0 mi North 11.5 mph - N/A   Clear
3:51 AM 34.0 °F 26.0 °F 6.1 °F 31% 30.08 in 10.0 mi North 10.4 mph - N/A   Clear
4:51 AM 33.1 °F 26.1 °F 5.0 °F 31% 30.09 in 10.0 mi North 8.1 mph - N/A   Clear
5:51 AM 32.0 °F 25.6 °F 5.0 °F 32% 30.09 in 10.0 mi North 6.9 mph - N/A   Clear
6:51 AM 32.0 °F 25.6 °F 3.2 °F 30% 30.17 in 10.0 mi North 6.9 mph - N/A   Clear
7:51 AM 33.1 °F 26.9 °F 3.0 °F 28% 30.11 in 10.0 mi North 6.9 mph - N/A   Clear
8:51 AM 35.1 °F 27.9 °F -0.0 °F 23% 30.14 in 10.0 mi North 9.2 mph - N/A   Clear
9:51 AM 37.0 °F 34.5 °F -0.0 °F 21% 30.15 in 10.0 mi North 3.5 mph - N/A   Clear
10:51 AM 39.9 °F 36.7 °F -0.0 °F 19% 30.13 in 10.0 mi ENE 4.6 mph - N/A   Partly Cloudy
11:51 AM 41.0 °F - -0.0 °F 18% 30.09 in 10.0 mi Calm Calm - N/A   Partly Cloudy
12:51 PM 44.6 °F 43.1 °F -0.4 °F 15% 30.08 in 10.0 mi West 3.5 mph - N/A   Partly Cloudy
1:51 PM 46.0 °F 44.8 °F -0.9 °F 14% 29.99 in 10.0 mi NNW 3.5 mph - N/A   Partly Cloudy
2:51 PM 46.9 °F - -2.0 °F 13% 29.97 in 10.0 mi Calm Calm - N/A   Scattered Clouds
3:51 PM 48.9 °F - -2.9 °F 12% 29.96 in 10.0 mi Calm Calm - N/A   Scattered Clouds
4:51 PM 46.0 °F 43.9 °F -2.9 °F 13% 29.96 in 10.0 mi WSW 4.6 mph - N/A   Mostly Cloudy
5:51 PM 45.0 °F 42.6 °F -0.9 °F 15% 29.99 in 10.0 mi NW 4.6 mph - N/A   Scattered Clouds
6:51 PM 44.1 °F 42.5 °F 1.0 °F 17% 30.00 in 10.0 mi NW 3.5 mph - N/A   Scattered Clouds
7:51 PM 37.0 °F 33.3 °F -0.9 °F 20% 30.00 in 10.0 mi East 4.6 mph - N/A   Partly Cloudy
8:51 PM 36.0 °F 29.0 °F -2.0 °F 20% 30.00 in 10.0 mi East 9.2 mph - N/A   Partly Cloudy
9:51 PM 36.0 °F 33.3 °F -0.9 °F 21% 30.01 in 10.0 mi NNE 3.5 mph - N/A   Clear
10:51 PM 33.1 °F - -2.0 °F 22% 30.01 in 10.0 mi Calm Calm - N/A   Clear
11:51 PM 30.0 °F 23.2 °F -2.0 °F 25% 30.01 in 10.0 mi SE 6.9 mph - N/A   Clear